Time,TemperatureF,DewpointF,PressureIn,WindDirection,WindDirectionDegrees,WindSpeedMPH,WindSpeedGustMPH,Humidity,HourlyPrecipIn,Conditions,Clouds,dailyrainin,SolarRadiationWatts/m^2,SoftwareType,DateUTC
2013-09-27 00:00:00,54.6,52.6,30.12,South,174,0.0,0.0,93,0.00,,,0.00,0,Wunderground v.1.15,2013-09-27 04:00:00,
2013-09-27 00:05:00,54.6,52.6,30.12,South,174,0.0,0.0,93,0.00,,,0.00,0,Wunderground v.1.15,2013-09-27 04:05:00,
2013-09-27 00:10:00,54.6,52.3,30.12,SE,144,0.0,0.0,92,0.00,,,0.00,0,Wunderground v.1.15,2013-09-27 04:10:00,
2013-09-27 00:20:00,55.0,52.1,30.12,NW,311,0.0,0.0,90,0.00,,,0.00,0,Wunderground v.1.15,2013-09-27 04:20:00,
2013-09-27 00:25:00,55.3,51.8,30.12,NW,309,0.0,0.0,88,0.00,,,0.00,0,Wunderground v.1.15,2013-09-27 04:25:00,
2013-09-27 00:35:00,55.5,51.4,30.12,NE,42,0.0,0.0,86,0.00,,,0.00,0,Wunderground v.1.15,2013-09-27 04:35:00,
2013-09-27 00:40:00,55.5,51.1,30.12,NE,42,0.0,0.0,85,0.00,,,0.00,0,Wunderground v.1.15,2013-09-27 04:40:00,
2013-09-27 00:45:00,55.5,51.4,30.12,NE,42,0.0,0.0,86,0.00,,,0.00,0,Wunderground v.1.15,2013-09-27 04:45:00,
2013-09-27 00:55:00,55.4,51.0,30.12,ENE,63,0.0,0.0,85,0.00,,,0.00,0,Wunderground v.1.15,2013-09-27 04:55:00,
2013-09-27 01:00:00,55.3,51.2,30.13,ENE,63,0.0,0.0,86,0.00,,,0.00,0,Wunderground v.1.15,2013-09-27 05:00:00,
2013-09-27 01:10:00,55.4,50.6,30.13,NNW,331,0.0,0.0,84,0.00,,,0.00,0,Wunderground v.1.15,2013-09-27 05:10:00,
2013-09-27 01:20:00,55.3,50.9,30.13,NNW,331,0.0,0.0,85,0.00,,,0.00,0,Wunderground v.1.15,2013-09-27 05:20:00,
2013-09-27 01:30:00,55.3,50.9,30.13,NNW,331,0.0,0.0,85,0.00,,,0.00,0,Wunderground v.1.15,2013-09-27 05:30:00,
2013-09-27 01:40:00,55.2,50.8,30.13,NW,323,0.0,0.0,85,0.00,,,0.00,0,Wunderground v.1.15,2013-09-27 05:40:00,
2013-09-27 01:50:00,55.1,50.7,30.13,NW,323,0.0,0.0,85,0.00,,,0.00,0,Wunderground v.1.15,2013-09-27 05:50:00,
2013-09-27 02:00:00,54.9,50.8,30.13,NW,323,0.0,0.0,86,0.00,,,0.00,0,Wunderground v.1.15,2013-09-27 06:00:00,
2013-09-27 02:10:00,54.8,50.7,30.13,NW,323,0.0,0.0,86,0.00,,,0.00,0,Wunderground v.1.15,2013-09-27 06:10:00,
2013-09-27 02:20:00,54.7,50.6,30.13,NW,323,0.0,0.0,86,0.00,,,0.00,0,Wunderground v.1.15,2013-09-27 06:20:00,
2013-09-27 02:30:00,55.0,50.6,30.12,NW,323,0.0,0.0,85,0.00,,,0.00,0,Wunderground v.1.15,2013-09-27 06:30:00,
2013-09-27 02:40:00,54.9,50.8,30.13,NW,323,0.0,0.0,86,0.00,,,0.00,0,Wunderground v.1.15,2013-09-27 06:40:00,
2013-09-27 02:45:00,54.9,50.8,30.12,NW,323,0.0,0.0,86,0.00,,,0.00,0,Wunderground v.1.15,2013-09-27 06:45:00,
2013-09-27 02:55:00,55.0,50.6,30.12,NW,323,0.0,0.0,85,0.00,,,0.00,0,Wunderground v.1.15,2013-09-27 06:55:00,
2013-09-27 03:00:00,55.0,50.6,30.12,NW,323,0.0,0.0,85,0.00,,,0.00,0,Wunderground v.1.15,2013-09-27 07:00:00,
2013-09-27 03:10:00,54.8,50.7,30.12,NW,323,0.0,0.0,86,0.00,,,0.00,0,Wunderground v.1.15,2013-09-27 07:10:00,
2013-09-27 03:15:00,54.9,50.8,30.12,NW,323,0.0,0.0,86,0.00,,,0.00,0,Wunderground v.1.15,2013-09-27 07:15:00,
2013-09-27 03:25:00,54.8,50.7,30.12,NW,323,0.0,1.0,86,0.00,,,0.00,0,Wunderground v.1.15,2013-09-27 07:25:00,
2013-09-27 03:35:00,54.8,50.7,30.12,NW,323,0.0,0.0,86,0.00,,,0.00,0,Wunderground v.1.15,2013-09-27 07:35:00,
2013-09-27 03:40:00,54.9,50.8,30.12,NW,323,0.0,0.0,86,0.00,,,0.00,0,Wunderground v.1.15,2013-09-27 07:40:00,
2013-09-27 03:50:00,54.8,50.7,30.12,NW,323,0.0,0.0,86,0.00,,,0.00,0,Wunderground v.1.15,2013-09-27 07:50:00,
2013-09-27 04:01:00,54.8,50.7,30.12,NW,323,0.0,0.0,86,0.00,,,0.00,0,Wunderground v.1.15,2013-09-27 08:01:00,
2013-09-27 04:10:00,54.8,50.7,30.12,NW,326,1.0,2.0,86,0.00,,,0.00,0,Wunderground v.1.15,2013-09-27 08:10:00,
2013-09-27 04:20:00,55.0,50.9,30.12,NW,326,1.0,1.0,86,0.00,,,0.00,0,Wunderground v.1.15,2013-09-27 08:20:00,
2013-09-27 04:30:00,55.1,51.0,30.12,NW,326,0.0,0.0,86,0.00,,,0.00,0,Wunderground v.1.15,2013-09-27 08:30:00,
2013-09-27 04:35:00,55.1,51.0,30.13,NW,326,0.0,0.0,86,0.00,,,0.00,0,Wunderground v.1.15,2013-09-27 08:35:00,
2013-09-27 04:45:00,54.8,51.0,30.13,NW,326,0.0,0.0,87,0.00,,,0.00,0,Wunderground v.1.15,2013-09-27 08:45:00,
2013-09-27 04:55:00,54.6,50.8,30.13,NW,326,0.0,0.0,87,0.00,,,0.00,0,Wunderground v.1.15,2013-09-27 08:55:00,
2013-09-27 05:01:00,54.7,50.9,30.14,NNW,329,0.0,0.0,87,0.00,,,0.00,0,Wunderground v.1.15,2013-09-27 09:01:00,
2013-09-27 05:10:00,54.8,51.0,30.14,NNW,329,0.0,0.0,87,0.00,,,0.00,0,Wunderground v.1.15,2013-09-27 09:10:00,
2013-09-27 05:20:00,54.9,51.1,30.14,NNW,329,0.0,0.0,87,0.00,,,0.00,0,Wunderground v.1.15,2013-09-27 09:20:00,
2013-09-27 05:25:00,54.9,51.1,30.14,NNW,329,0.0,0.0,87,0.00,,,0.00,0,Wunderground v.1.15,2013-09-27 09:25:00,
2013-09-27 05:30:00,54.9,51.1,30.14,NNW,329,0.0,0.0,87,0.00,,,0.00,0,Wunderground v.1.15,2013-09-27 09:30:00,
2013-09-27 05:40:00,55.0,50.9,30.14,NNW,343,0.0,0.0,86,0.00,,,0.00,0,Wunderground v.1.15,2013-09-27 09:40:00,
2013-09-27 05:50:00,55.0,50.9,30.15,NNW,335,1.0,2.0,86,0.00,,,0.00,0,Wunderground v.1.15,2013-09-27 09:50:00,
2013-09-27 06:01:00,55.1,51.0,30.15,WNW,285,1.0,3.0,86,0.00,,,0.00,0,Wunderground v.1.15,2013-09-27 10:01:00,
2013-09-27 06:10:00,55.1,51.0,30.15,NNW,327,1.0,1.0,86,0.00,,,0.00,0,Wunderground v.1.15,2013-09-27 10:10:00,
2013-09-27 06:20:00,55.1,51.0,30.16,NW,324,1.0,1.0,86,0.00,,,0.00,0,Wunderground v.1.15,2013-09-27 10:20:00,
2013-09-27 06:30:00,55.1,51.0,30.16,NW,325,1.0,1.0,86,0.00,,,0.00,0,Wunderground v.1.15,2013-09-27 10:30:00,
2013-09-27 06:35:00,55.0,50.9,30.16,NW,324,1.0,1.0,86,0.00,,,0.00,0,Wunderground v.1.15,2013-09-27 10:35:00,
2013-09-27 06:45:00,55.0,50.9,30.16,NNW,329,1.0,4.0,86,0.00,,,0.00,0,Wunderground v.1.15,2013-09-27 10:45:00,
2013-09-27 06:50:00,55.0,50.9,30.16,NW,322,2.0,2.0,86,0.00,,,0.00,0,Wunderground v.1.15,2013-09-27 10:50:00,
2013-09-27 06:55:00,55.0,50.9,30.16,NW,323,2.0,5.0,86,0.00,,,0.00,0,Wunderground v.1.15,2013-09-27 10:55:00,
2013-09-27 07:01:00,55.0,50.9,30.16,NW,323,2.0,2.0,86,0.00,,,0.00,5,Wunderground v.1.15,2013-09-27 11:01:00,
2013-09-27 07:10:00,55.0,50.9,30.17,NW,313,0.0,0.0,86,0.00,,,0.00,11,Wunderground v.1.15,2013-09-27 11:10:00,
2013-09-27 07:15:00,55.2,51.1,30.17,NNW,336,0.0,5.0,86,0.00,,,0.00,12,Wunderground v.1.15,2013-09-27 11:15:00,
2013-09-27 07:25:00,55.3,51.2,30.17,NW,310,2.0,4.0,86,0.00,,,0.00,18,Wunderground v.1.15,2013-09-27 11:25:00,
2013-09-27 07:35:00,55.3,51.2,30.18,NW,323,2.0,2.0,86,0.00,,,0.00,21,Wunderground v.1.15,2013-09-27 11:35:00,
2013-09-27 07:40:00,55.3,51.2,30.17,NNW,333,2.0,4.0,86,0.00,,,0.00,25,Wunderground v.1.15,2013-09-27 11:40:00,
2013-09-27 07:50:00,55.4,51.0,30.18,NW,321,2.0,2.0,85,0.00,,,0.00,30,Wunderground v.1.15,2013-09-27 11:50:00,
2013-09-27 07:55:00,55.4,51.0,30.18,NW,317,2.0,4.0,85,0.00,,,0.00,33,Wunderground v.1.15,2013-09-27 11:55:00,
2013-09-27 08:01:00,55.5,51.1,30.19,NW,306,2.0,2.0,85,0.00,,,0.00,39,Wunderground v.1.15,2013-09-27 12:01:00,
2013-09-27 08:10:00,55.6,51.2,30.19,NNW,329,1.0,1.0,85,0.00,,,0.00,44,Wunderground v.1.15,2013-09-27 12:10:00,
2013-09-27 08:20:00,55.7,51.3,30.19,NW,311,1.0,1.0,85,0.00,,,0.00,49,Wunderground v.1.15,2013-09-27 12:20:00,
2013-09-27 08:30:00,55.8,51.4,30.19,NW,315,1.0,1.0,85,0.00,,,0.00,53,Wunderground v.1.15,2013-09-27 12:30:00,
2013-09-27 08:40:00,55.8,51.4,30.19,NNW,332,1.0,1.0,85,0.00,,,0.00,56,Wunderground v.1.15,2013-09-27 12:40:00,
2013-09-27 08:50:00,56.0,51.9,30.19,NW,309,1.0,1.0,86,0.00,,,0.00,63,Wunderground v.1.15,2013-09-27 12:50:00,
2013-09-27 09:01:00,56.2,52.1,30.20,NW,309,0.0,0.0,86,0.00,,,0.00,79,Wunderground v.1.15,2013-09-27 13:01:00,
2013-09-27 09:11:00,56.5,52.0,30.20,NW,323,0.0,0.0,85,0.00,,,0.00,120,Wunderground v.1.15,2013-09-27 13:11:00,
2013-09-27 09:20:00,56.8,52.0,30.21,NNW,338,0.0,0.0,84,0.00,,,0.00,113,Wunderground v.1.15,2013-09-27 13:20:00,
2013-09-27 09:26:00,56.9,52.1,30.21,NNW,332,0.0,0.0,84,0.00,,,0.00,132,Wunderground v.1.15,2013-09-27 13:26:00,
2013-09-27 09:31:00,57.1,52.6,30.21,NW,324,0.0,3.0,85,0.00,,,0.00,149,Wunderground v.1.15,2013-09-27 13:31:00,
2013-09-27 09:40:00,57.6,52.8,30.21,NNW,333,0.0,0.0,84,0.00,,,0.00,158,Wunderground v.1.15,2013-09-27 13:40:00,
2013-09-27 09:46:00,57.9,53.1,30.21,North,355,0.0,4.0,84,0.00,,,0.00,186,Wunderground v.1.15,2013-09-27 13:46:00,
2013-09-27 09:55:00,58.2,53.1,30.21,NW,306,1.0,3.0,83,0.00,,,0.00,223,Wunderground v.1.15,2013-09-27 13:55:00,
2013-09-27 10:01:00,58.4,52.9,30.21,WNW,295,2.0,5.0,82,0.00,,,0.00,239,Wunderground v.1.15,2013-09-27 14:01:00,
2013-09-27 10:10:00,59.2,53.7,30.21,NW,314,2.0,3.0,82,0.00,,,0.00,255,Wunderground v.1.15,2013-09-27 14:10:00,
2013-09-27 10:20:00,59.8,54.0,30.21,NNW,333,2.0,2.0,81,0.00,,,0.00,279,Wunderground v.1.15,2013-09-27 14:20:00,
2013-09-27 10:30:00,60.3,53.4,30.21,NNW,344,1.0,4.0,78,0.00,,,0.00,290,Wunderground v.1.15,2013-09-27 14:30:00,
2013-09-27 10:35:00,60.7,53.8,30.21,NW,304,2.0,4.0,78,0.00,,,0.00,309,Wunderground v.1.15,2013-09-27 14:35:00,
2013-09-27 10:45:00,61.2,53.6,30.21,NW,325,3.0,6.0,76,0.00,,,0.00,316,Wunderground v.1.15,2013-09-27 14:45:00,
2013-09-27 10:55:00,61.5,53.9,30.21,NW,323,1.0,2.0,76,0.00,,,0.00,364,Wunderground v.1.15,2013-09-27 14:55:00,
2013-09-27 11:00:00,61.5,53.9,30.21,WNW,291,2.0,2.0,76,0.00,,,0.00,355,Wunderground v.1.15,2013-09-27 15:00:00,
2013-09-27 11:10:00,61.9,54.2,30.21,North,360,0.0,0.0,76,0.00,,,0.00,343,Wunderground v.1.15,2013-09-27 15:10:00,
2013-09-27 11:20:00,62.5,54.5,30.21,NNW,331,3.0,3.0,75,0.00,,,0.00,346,Wunderground v.1.15,2013-09-27 15:20:00,
2013-09-27 11:30:00,62.2,53.8,30.21,NW,304,1.0,1.0,74,0.00,,,0.00,343,Wunderground v.1.15,2013-09-27 15:30:00,
2013-09-27 11:35:00,62.6,54.9,30.22,NNW,329,1.0,1.0,76,0.00,,,0.00,397,Wunderground v.1.15,2013-09-27 15:35:00,
2013-09-27 11:45:00,62.5,53.7,30.21,NNE,32,2.0,3.0,73,0.00,,,0.00,403,Wunderground v.1.15,2013-09-27 15:45:00,
2013-09-27 11:55:00,62.7,54.7,30.21,South,177,2.0,2.0,75,0.00,,,0.00,276,Wunderground v.1.15,2013-09-27 15:55:00,
2013-09-27 12:01:00,62.8,54.4,30.21,NW,317,1.0,1.0,74,0.00,,,0.00,316,Wunderground v.1.15,2013-09-27 16:01:00,
2013-09-27 12:10:00,62.9,54.9,30.21,NW,319,2.0,2.0,75,0.00,,,0.00,288,Wunderground v.1.15,2013-09-27 16:10:00,
2013-09-27 12:20:00,63.5,54.7,30.21,NW,310,2.0,2.0,73,0.00,,,0.00,434,Wunderground v.1.15,2013-09-27 16:20:00,
2013-09-27 12:30:00,63.4,54.6,30.21,NW,311,1.0,5.0,73,0.00,,,0.00,283,Wunderground v.1.15,2013-09-27 16:30:00,
2013-09-27 12:35:00,63.1,54.7,30.21,NW,313,3.0,5.0,74,0.00,,,0.00,267,Wunderground v.1.15,2013-09-27 16:35:00,
2013-09-27 12:45:00,63.4,55.3,30.21,NW,305,3.0,3.0,75,0.00,,,0.00,345,Wunderground v.1.15,2013-09-27 16:45:00,
2013-09-27 12:55:00,63.4,55.0,30.20,NNW,336,3.0,3.0,74,0.00,,,0.00,197,Wunderground v.1.15,2013-09-27 16:55:00,
2013-09-27 13:01:00,63.2,54.8,30.21,NNW,334,3.0,3.0,74,0.00,,,0.00,207,Wunderground v.1.15,2013-09-27 17:01:00,
2013-09-27 13:10:00,63.5,55.1,30.20,North,355,2.0,2.0,74,0.00,,,0.00,464,Wunderground v.1.15,2013-09-27 17:10:00,
2013-09-27 13:20:00,64.1,55.3,30.20,NW,304,1.0,1.0,73,0.00,,,0.00,167,Wunderground v.1.15,2013-09-27 17:20:00,
2013-09-27 13:25:00,63.6,54.4,30.20,NW,325,2.0,2.0,72,0.00,,,0.00,269,Wunderground v.1.15,2013-09-27 17:25:00,
2013-09-27 13:35:00,64.5,56.0,30.20,NW,313,1.0,2.0,74,0.00,,,0.00,357,Wunderground v.1.15,2013-09-27 17:35:00,
2013-09-27 13:45:00,64.1,55.3,30.19,NW,321,3.0,5.0,73,0.00,,,0.00,239,Wunderground v.1.15,2013-09-27 17:45:00,
2013-09-27 13:50:00,64.1,55.6,30.19,North,350,2.0,5.0,74,0.00,,,0.00,292,Wunderground v.1.15,2013-09-27 17:50:00,
2013-09-27 14:01:00,64.7,56.6,30.19,WNW,296,2.0,2.0,75,0.00,,,0.00,504,Wunderground v.1.15,2013-09-27 18:01:00,
2013-09-27 14:10:00,64.7,55.1,30.19,North,355,2.0,3.0,71,0.00,,,0.00,348,Wunderground v.1.15,2013-09-27 18:10:00,
2013-09-27 14:15:00,64.6,55.4,30.19,NW,317,3.0,3.0,72,0.00,,,0.00,338,Wunderground v.1.15,2013-09-27 18:15:00,
2013-09-27 14:25:00,64.4,55.2,30.19,NW,326,2.0,4.0,72,0.00,,,0.00,295,Wunderground v.1.15,2013-09-27 18:25:00,
2013-09-27 14:35:00,64.4,55.2,30.18,NNW,337,2.0,3.0,72,0.00,,,0.00,338,Wunderground v.1.15,2013-09-27 18:35:00,
2013-09-27 14:40:00,64.7,55.5,30.18,NNW,329,2.0,2.0,72,0.00,,,0.00,341,Wunderground v.1.15,2013-09-27 18:40:00,
2013-09-27 14:50:00,65.3,56.0,30.18,NE,46,0.0,1.0,72,0.00,,,0.00,304,Wunderground v.1.15,2013-09-27 18:50:00,
2013-09-27 15:00:00,65.2,54.8,30.18,NNW,327,1.0,1.0,69,0.00,,,0.00,229,Wunderground v.1.15,2013-09-27 19:00:00,
2013-09-27 15:10:00,65.4,55.4,30.18,NW,320,2.0,2.0,70,0.00,,,0.00,680,Wunderground v.1.15,2013-09-27 19:10:00,
2013-09-27 15:20:00,65.5,54.7,30.18,ESE,102,1.0,1.0,68,0.00,,,0.00,167,Wunderground v.1.15,2013-09-27 19:20:00,
2013-09-27 15:30:00,65.2,54.8,30.18,South,184,0.0,0.0,69,0.00,,,0.00,111,Wunderground v.1.15,2013-09-27 19:30:00,
2013-09-27 15:40:00,65.9,54.6,30.18,NNW,347,1.0,1.0,67,0.00,,,0.00,237,Wunderground v.1.15,2013-09-27 19:40:00,
2013-09-27 15:51:00,66.2,54.9,30.17,WNW,295,1.0,4.0,67,0.00,,,0.00,216,Wunderground v.1.15,2013-09-27 19:51:00,
2013-09-27 16:01:00,66.0,54.3,30.18,NNW,327,1.0,1.0,66,0.00,,,0.00,98,Wunderground v.1.15,2013-09-27 20:01:00,
2013-09-27 16:10:00,66.4,54.3,30.18,NNW,346,3.0,3.0,65,0.00,,,0.00,417,Wunderground v.1.15,2013-09-27 20:10:00,
2013-09-27 16:16:00,66.2,54.5,30.17,NW,306,2.0,4.0,66,0.00,,,0.00,413,Wunderground v.1.15,2013-09-27 20:16:00,
2013-09-27 16:25:00,65.9,55.0,30.18,SSE,156,1.0,1.0,68,0.00,,,0.00,267,Wunderground v.1.15,2013-09-27 20:25:00,
2013-09-27 16:35:00,66.0,55.1,30.18,NW,304,1.0,1.0,68,0.00,,,0.00,76,Wunderground v.1.15,2013-09-27 20:35:00,
2013-09-27 16:40:00,65.8,56.1,30.18,WNW,293,1.0,2.0,71,0.00,,,0.00,329,Wunderground v.1.15,2013-09-27 20:40:00,
2013-09-27 16:50:00,66.2,55.3,30.18,NW,315,2.0,2.0,68,0.00,,,0.00,292,Wunderground v.1.15,2013-09-27 20:50:00,
2013-09-27 16:55:00,65.7,54.4,30.18,WNW,284,1.0,2.0,67,0.00,,,0.00,271,Wunderground v.1.15,2013-09-27 20:55:00,
2013-09-27 17:01:00,65.5,55.8,30.18,WNW,287,0.0,1.0,71,0.00,,,0.00,246,Wunderground v.1.15,2013-09-27 21:01:00,
2013-09-27 17:06:00,65.2,55.2,30.18,WNW,287,0.0,1.0,70,0.00,,,0.00,229,Wunderground v.1.15,2013-09-27 21:06:00,
2013-09-27 17:15:00,64.0,55.9,30.18,WNW,287,0.0,0.0,75,0.00,,,0.00,54,Wunderground v.1.15,2013-09-27 21:15:00,
2013-09-27 17:26:00,61.5,55.6,30.18,WNW,287,0.0,0.0,81,0.00,,,0.00,37,Wunderground v.1.15,2013-09-27 21:26:00,
2013-09-27 17:35:00,60.9,55.7,30.18,WNW,287,0.0,0.0,83,0.00,,,0.00,32,Wunderground v.1.15,2013-09-27 21:35:00,
2013-09-27 17:44:00,59.9,55.4,30.18,WNW,287,0.0,0.0,85,0.00,,,0.00,26,Wunderground v.1.15,2013-09-27 21:44:00,
2013-09-27 17:50:00,59.3,55.1,30.18,WNW,287,0.0,0.0,86,0.00,,,0.00,25,Wunderground v.1.15,2013-09-27 21:50:00,
2013-09-27 18:00:00,58.8,55.3,30.18,WNW,287,0.0,0.0,88,0.00,,,0.00,18,Wunderground v.1.15,2013-09-27 22:00:00,
2013-09-27 18:09:00,58.3,55.1,30.18,WNW,287,0.0,0.0,89,0.00,,,0.00,12,Wunderground v.1.15,2013-09-27 22:09:00,
2013-09-27 18:20:00,57.6,54.7,30.19,WNW,287,0.0,0.0,90,0.00,,,0.00,9,Wunderground v.1.15,2013-09-27 22:20:00,
2013-09-27 18:29:00,57.1,54.5,30.19,WNW,287,0.0,0.0,91,0.00,,,0.00,5,Wunderground v.1.15,2013-09-27 22:29:00,
2013-09-27 18:40:00,56.6,54.0,30.19,WNW,287,0.0,0.0,91,0.00,,,0.00,0,Wunderground v.1.15,2013-09-27 22:40:00,
2013-09-27 18:49:00,56.0,53.7,30.19,WNW,287,0.0,0.0,92,0.00,,,0.00,0,Wunderground v.1.15,2013-09-27 22:49:00,
2013-09-27 19:00:00,55.4,53.4,30.19,WNW,287,0.0,0.0,93,0.00,,,0.00,0,Wunderground v.1.15,2013-09-27 23:00:00,
2013-09-27 19:10:00,54.8,52.8,30.20,WNW,287,0.0,0.0,93,0.00,,,0.00,0,Wunderground v.1.15,2013-09-27 23:10:00,
2013-09-27 19:19:00,54.3,52.3,30.19,WNW,287,0.0,0.0,93,0.00,,,0.00,0,Wunderground v.1.15,2013-09-27 23:19:00,
2013-09-27 19:25:00,54.2,52.5,30.20,WNW,287,0.0,0.0,94,0.00,,,0.00,0,Wunderground v.1.15,2013-09-27 23:25:00,
2013-09-27 19:35:00,53.6,51.9,30.20,WNW,287,0.0,0.0,94,0.00,,,0.00,0,Wunderground v.1.15,2013-09-27 23:35:00,
2013-09-27 19:44:00,53.1,51.4,30.20,WNW,287,0.0,0.0,94,0.00,,,0.00,0,Wunderground v.1.15,2013-09-27 23:44:00,
2013-09-27 19:50:00,52.9,51.2,30.20,WNW,287,0.0,0.0,94,0.00,,,0.00,0,Wunderground v.1.15,2013-09-27 23:50:00,
2013-09-27 20:00:00,52.6,50.9,30.20,WNW,287,0.0,0.0,94,0.00,,,0.00,0,Wunderground v.1.15,2013-09-28 00:00:00,
2013-09-27 20:09:00,52.2,50.5,30.21,WNW,287,0.0,0.0,94,0.00,,,0.00,0,Wunderground v.1.15,2013-09-28 00:09:00,
2013-09-27 20:15:00,51.8,50.1,30.21,WNW,287,0.0,0.0,94,0.00,,,0.00,0,Wunderground v.1.15,2013-09-28 00:15:00,
2013-09-27 20:25:00,51.4,50.0,30.21,WNW,287,0.0,0.0,95,0.00,,,0.00,0,Wunderground v.1.15,2013-09-28 00:25:00,
2013-09-27 20:34:00,51.1,49.7,30.21,WNW,287,0.0,0.0,95,0.00,,,0.00,0,Wunderground v.1.15,2013-09-28 00:34:00,
2013-09-27 20:45:00,50.9,49.5,30.22,WNW,287,0.0,0.0,95,0.00,,,0.00,0,Wunderground v.1.15,2013-09-28 00:45:00,
2013-09-27 20:55:00,50.6,49.2,30.22,WNW,287,0.0,0.0,95,0.00,,,0.00,0,Wunderground v.1.15,2013-09-28 00:55:00,
2013-09-27 21:00:00,50.2,48.8,30.22,WNW,287,0.0,0.0,95,0.00,,,0.00,0,Wunderground v.1.15,2013-09-28 01:00:00,
2013-09-27 21:10:00,50.0,48.6,30.22,WNW,287,0.0,0.0,95,0.00,,,0.00,0,Wunderground v.1.15,2013-09-28 01:10:00,
2013-09-27 21:20:00,49.8,48.4,30.22,WNW,287,0.0,0.0,95,0.00,,,0.00,0,Wunderground v.1.15,2013-09-28 01:20:00,
2013-09-27 21:30:00,49.6,48.2,30.23,WNW,287,0.0,0.0,95,0.00,,,0.00,0,Wunderground v.1.15,2013-09-28 01:30:00,
2013-09-27 21:39:00,49.5,48.1,30.23,WNW,287,0.0,0.0,95,0.00,,,0.00,0,Wunderground v.1.15,2013-09-28 01:39:00,
2013-09-27 21:50:00,49.5,48.1,30.23,WNW,287,0.0,0.0,95,0.00,,,0.00,0,Wunderground v.1.15,2013-09-28 01:50:00,
2013-09-27 22:00:00,49.1,47.7,30.23,WNW,287,0.0,0.0,95,0.00,,,0.00,0,Wunderground v.1.15,2013-09-28 02:00:00,
2013-09-27 22:09:00,48.9,47.5,30.24,WNW,287,0.0,0.0,95,0.00,,,0.00,0,Wunderground v.1.15,2013-09-28 02:09:00,
2013-09-27 22:15:00,48.6,47.2,30.24,WNW,287,0.0,0.0,95,0.00,,,0.00,0,Wunderground v.1.15,2013-09-28 02:15:00,
2013-09-27 22:25:00,48.3,46.9,30.24,WNW,287,0.0,0.0,95,0.00,,,0.00,0,Wunderground v.1.15,2013-09-28 02:25:00,
2013-09-27 22:34:00,47.9,46.8,30.24,WNW,287,0.0,0.0,96,0.00,,,0.00,0,Wunderground v.1.15,2013-09-28 02:34:00,
2013-09-27 22:44:00,47.7,46.3,30.24,WNW,287,0.0,0.0,95,0.00,,,0.00,0,Wunderground v.1.15,2013-09-28 02:44:00,
2013-09-27 22:50:00,47.6,46.2,30.24,WNW,287,0.0,0.0,95,0.00,,,0.00,0,Wunderground v.1.15,2013-09-28 02:50:00,
2013-09-27 23:00:00,47.5,46.1,30.24,WNW,287,0.0,0.0,95,0.00,,,0.00,0,Wunderground v.1.15,2013-09-28 03:00:00,
2013-09-27 23:09:00,47.3,46.2,30.24,WNW,287,0.0,0.0,96,0.00,,,0.00,0,Wunderground v.1.15,2013-09-28 03:09:00,
2013-09-27 23:20:00,47.1,45.7,30.24,WNW,287,0.0,0.0,95,0.00,,,0.00,0,Wunderground v.1.15,2013-09-28 03:20:00,
2013-09-27 23:29:00,47.0,45.9,30.24,WNW,287,0.0,0.0,96,0.00,,,0.00,0,Wunderground v.1.15,2013-09-28 03:29:00,
2013-09-27 23:39:00,46.9,45.8,30.24,WNW,287,0.0,0.0,96,0.00,,,0.00,0,Wunderground v.1.15,2013-09-28 03:39:00,
2013-09-27 23:45:00,46.8,45.7,30.24,WNW,287,0.0,0.0,96,0.00,,,0.00,0,Wunderground v.1.15,2013-09-28 03:45:00,
2013-09-27 23:50:00,46.8,45.7,30.24,WNW,287,0.0,0.0,96,0.00,,,0.00,0,Wunderground v.1.15,2013-09-28 03:50:00,